Tracking 20945 objects as of 9-Jul-2020
HD Live streaming from Space Station
objects crossing your sky now

SL-8 DEB

Track SL-8 DEB now!
10-day predictions


NORAD ID: 11752
Int'l Code: 1980-026C
Perigee: 965.1 km
Apogee: 1,012.1 km
Inclination: 65.8 °
Period: 104.7 minutes
Semi major axis: 7359 km
RCS: 0.4567 m2 (medium)
Launch date: April 3, 1980
Source: Commonwealth of Independent States (former USSR) (CIS)
Launch site: PLESETSK MISSILE AND SPACE COMPLEX (PKMTR)

Note: This is SATELLITE DEBRIS
aabbcc
Your satellite tracking list
Your tracking list is empty




NASA's NSSDC Master Catalog

Two Line Element Set (TLE):
1 11752U 80026C   20190.85966910 -.00000073 +00000-0 +81534-5 0  9995
2 11752 065.8430 007.8266 0031948 267.7370 194.0085 13.75063006020796
Source of the keplerian elements: AFSPC